FENGYUN 1C DEB

Satellite information

Favourite Embed

Satellite Type and Status

DEBRISIN ORBIT

Key statistics

Satellite FENGYUN 1C DEB at a glance.

Uptime

9615

Days in orbit

Revolutions

≈ 14.5

Per day

Orbit

SSO

Sun Synchronous Orbit

Inclination

102.3

Latest

Satellite identification and parameters

Extended collection of information and parameters for FENGYUN 1C DEB.

Object identification

Identified? True

Debris? True

Object name: FENGYUN 1C DEB

International designator: 1999-025AHE

Object number (NORAD): 30492

Object ID (CCSDS): 30492

Country: PEOPLES REPUBLIC OF CHINA (PRC)

Current information (Y/N): Y

RCS size: SMALL

Orbital parameters

Period: 99.451 minutes

Inclination: 102.3245 deg

SMA: 7110.496 km

Apoapsis: 807.27 km

Periapsis: 657.451 km

RAAN: 217.3964 deg

Eccentricy: 0.01053509

Argument of periapsis: 331.6586 deg

Mean anomaly: 27.8886 deg

Mean motion: 14.47947952 rev/day

Mean motion (dot): 0.00053043 rev/day2

B* drag term: 0.013246705 1/REarth

Two-line elements (TLE)

Creation date: Sept. 3, 2025, 10:15 a.m.

Reference frame: TEME

Reference center: EARTH

Epoch: Sept. 3, 2025, 4:07 a.m. UTC

TLE line 0: 0 FENGYUN 1C DEB

TLE line 1: 1 30492U 99025AHE 25246.17213671 .00053043 00000-0 13247-1 0 9993

TLE line 2: 2 30492 102.3245 217.3964 0105351 331.6586 27.8886 14.47947952954375

Live tracking on map

Real-time ground track for satellite FENGYUN 1C DEB.

In-orbit conjunctions

A list of the most updated potential collisions computed for object FENGYUN 1C DEB.

Target Orbit TCA Probability of collision Miss distance Type
FENGYUN 1C DEB SSO 2025-01-12 18:17:12 0.0001879384 320.0 (m) DEBRIS
COSMOS 2251 DEB LEO 2024-09-27 01:27:16 0.0001881615 669.0 (m) DEBRIS
DMSP 5D-2 F13 DEB SSO 2024-08-19 10:34:45 0.0001114245 50.0 (m) DEBRIS

Associated space launch

Chinese polar orbiting meteorological satellite

FENGYUN 1C DEB was lifted into orbit during the mission ‘Long March 4B | Feng Yun 1C’, on board a Long March 4B space rocket.

The launch took place on May 10, 1999, 1:33 a.m. from Launch Complex 7.

For more information about the launch, click the button.

Launch to space Long March 4B | Feng Yun 1C
Long March 4B | Feng Yun 1C

Agency: N/A

Status: Launch Successful

Launch date: May 10, 1999, 1:33 a.m. UTC

Rocket: Long March 4B

Launch pad: Launch Complex 7

Location: Taiyuan Satellite Launch Center, People's Republic of China

...

Latest news about this satellite

There are no fresh news available about this satellite. Check back as we update our databases every day.


Newsletter sign-up

Weekly statistics, charts and insights to help you stay on top of the space industry.